Theta_e
303 302 301 301 302 302 303 303 304 304 304 304 303 306 302 301 300 312 315 318 308 300 294 297 296 296 297 300 298 299 298 296 298 297 299 296 297 297 296 295 294 296 295 295 295 296 293 294 293 295 296 300 302 304 305 305 303 303 300 303 304 304 292 291 293 297 298 301 303 303 302 302 298 298 299 297 294 295 293 292 297 291 291 289 288 286 291
302 302 302 302 302 302 303 303 304 304 304 302 303 302 302 303 306 306 315 317 313 303 291 291 293 297 300 299 298 300 298 297 295 294 299 295 296 294 295 297 298 295 298 296 293 297 289 295 295 294 299 298 304 305 306 306 302 302 301 298 306 292 296 293 290 289 291 294 298 298 301 301 298 298 301 301 301 300 300 298 299 290 291 292 287 283 289
302 301 302 302 302 302 302 303 304 304 305 305 302 299 305 305 307 305 309 313 311 299 300 297 294 295 297 296 295 297 296 298 299 298 297 298 298 297 296 297 298 295 297 296 297 297 294 292 297 298 298 300 304 306 305 306 303 306 306 308 308 297 295 294 286 283 282 282 283 286 290 295 298 299 300 301 300 300 297 289 293 287 292 293 289 289 296
301 301 301 302 302 302 302 303 304 304 305 304 301 301 303 304 291 300 303 307 307 305 305 302 298 295 297 292 296 297 295 297 298 299 299 299 299 298 298 298 299 296 296 294 294 294 297 293 293 296 297 300 302 304 305 305 304 306 308 307 305 297 300 297 294 290 287 289 292 297 296 298 294 297 299 299 302 301 301 298 290 287 291 290 294 294 295
301 301 302 301 302 302 303 303 304 304 304 303 302 302 303 305 295 295 293 302 302 300 302 300 299 294 298 289 295 293 295 297 296 298 295 298 297 297 297 297 295 294 294 294 293 295 295 295 295 294 295 299 301 304 304 305 305 306 306 307 303 300 295 297 296 296 296 297 296 298 298 294 297 297 297 300 299 299 297 292 289 297 291 287 296 299 296
301 301 301 301 301 302 303 303 304 304 304 303 303 300 306 294 300 303 304 297 293 294 295 300 297 299 298 295 297 295 294 295 292 296 298 299 298 295 296 296 296 295 294 294 290 293 294 294 291 297 296 297 299 300 301 301 303 305 305 307 302 298 291 296 296 295 297 298 297 298 298 297 298 298 297 296 298 296 295 295 297 298 290 287 295 298 295
301 301 301 301 301 302 302 303 304 305 304 303 302 300 305 305 302 304 306 295 298 299 299 299 298 296 297 296 296 294 294 293 295 295 296 295 296 297 289 293 295 296 296 295 292 294 289 288 296 296 297 298 296 296 299 302 304 304 303 303 304 299 293 298 297 295 297 298 298 297 296 297 296 295 296 297 296 295 295 296 298 299 297 298 295 293 291
301 301 300 301 301 302 302 303 304 305 303 305 302 303 302 301 299 298 303 304 299 299 299 299 298 295 297 290 295 295 295 293 295 297 295 291 295 298 295 294 295 296 296 295 293 295 296 296 290 300 297 296 297 292 296 295 300 300 299 301 304 297 292 297 297 294 294 296 298 298 296 295 292 294 295 295 296 296 296 295 295 298 298 298 297 294 291
301 301 300 301 301 302 302 303 304 304 304 304 304 306 308 307 307 307 298 296 297 298 298 296 296 292 294 293 295 295 295 295 296 296 298 296 294 296 294 295 296 297 294 295 295 297 299 299 299 300 298 293 299 295 297 299 294 296 298 299 296 299 292 298 297 289 289 297 295 296 295 294 291 290 291 292 293 291 292 290 293 293 291 296 296 292 289
301 300 300 301 301 302 302 303 304 303 304 302 307 305 314 309 309 309 302 293 295 295 297 298 295 290 295 297 295 294 295 297 296 291 297 298 299 298 297 297 295 295 295 294 297 299 300 300 301 301 300 301 300 300 300 300 298 298 298 301 296 296 294 290 291 287 288 294 296 294 294 292 287 284 289 292 293 294 293 293 294 293 295 290 288 290 295
300 300 300 300 301 302 302 303 304 304 304 304 305 308 309 306 305 304 303 293 292 296 295 295 294 294 296 297 296 297 297 296 297 292 290 296 297 299 298 297 295 293 294 298 301 301 301 301 301 302 300 300 299 299 299 300 299 298 301 298 297 298 297 292 297 287 288 293 294 293 287 282 281 290 294 294 292 292 289 289 291 293 295 292 293 292 294
300 300 300 300 301 302 302 303 303 304 304 305 307 306 311 313 309 305 298 292 290 298 296 293 295 297 296 295 296 294 293 294 296 297 295 296 298 299 299 298 297 288 299 304 302 302 302 302 301 300 299 299 299 299 300 300 301 301 301 299 297 297 296 292 297 289 288 291 293 287 281 280 289 295 295 296 296 295 292 291 292 292 294 295 293 292 291
300 300 300 301 301 302 302 303 303 304 304 306 306 306 313 315 308 304 301 297 292 294 292 295 298 296 297 296 295 295 296 297 297 297 297 297 297 298 298 297 295 298 302 300 300 299 295 295 297 296 296 296 297 298 298 299 300 301 302 300 299 293 292 294 290 292 291 288 288 280 279 287 292 293 294 296 297 295 294 289 291 292 292 293 291 292 292
300 300 300 301 301 302 302 303 303 304 304 305 305 308 312 314 307 305 302 296 292 297 298 295 295 295 295 294 295 296 297 295 296 297 295 299 297 297 299 300 301 302 301 302 298 297 293 295 290 291 291 293 294 292 296 297 299 298 299 301 301 300 298 293 288 294 285 285 285 283 287 286 288 288 290 291 288 289 288 284 286 292 292 292 292 291 292
300 300 300 300 301 301 302 303 303 304 305 305 306 307 311 314 311 308 308 302 293 295 297 291 295 296 296 296 295 294 293 295 294 293 296 300 298 299 301 301 303 301 302 298 295 297 293 291 287 286 286 286 283 285 293 290 297 300 299 301 301 300 293 295 291 287 291 286 282 282 282 280 282 289 293 296 295 295 294 291 285 292 293 294 293 291 291
299 300 300 300 301 302 303 303 304 304 305 305 307 309 313 313 311 309 305 301 297 289 294 299 299 296 295 293 295 294 293 292 293 296 296 297 297 299 301 302 302 302 300 297 296 293 292 287 285 285 284 285 290 286 284 291 290 296 299 296 299 300 300 296 292 288 288 286 283 282 280 280 286 289 293 296 297 296 295 289 283 290 293 293 293 291 292
299 299 300 301 301 302 303 303 304 304 305 305 305 309 311 312 310 308 307 305 299 290 297 297 299 297 295 292 293 294 296 293 295 290 290 293 295 297 298 300 304 302 298 298 299 291 289 288 288 287 287 291 287 285 287 286 286 288 295 297 296 296 293 293 290 287 287 286 283 279 282 281 287 292 294 296 297 297 292 282 281 289 293 294 293 292 292
299 299 300 301 301 302 303 304 304 305 305 306 306 308 312 315 315 312 307 304 295 294 297 299 299 297 295 296 296 296 296 295 294 297 293 295 295 295 297 298 297 301 302 294 294 290 287 287 285 286 284 291 292 292 283 288 285 286 286 287 288 289 290 291 287 287 285 283 282 283 283 288 292 293 296 296 297 293 284 278 282 292 293 294 294 292 293
299 299 300 301 301 302 303 304 305 305 306 306 308 311 313 309 311 314 309 303 297 291 297 300 301 299 301 301 297 297 297 300 299 292 292 291 295 298 298 299 300 293 298 293 294 289 286 286 291 288 286 287 291 284 290 286 284 290 291 286 288 288 289 289 290 286 285 285 282 281 283 289 293 295 296 296 292 283 280 287 295 294 293 293 293 292 292
299 299 300 301 301 302 303 304 305 306 306 306 307 308 308 311 312 315 308 300 298 296 298 300 300 298 301 299 296 296 298 299 298 296 294 291 299 299 296 291 298 298 296 297 289 289 288 286 287 291 287 286 290 293 288 289 293 289 289 290 287 285 286 285 284 285 286 286 282 281 277 287 295 294 294 294 286 285 291 293 293 294 293 292 292 292 291
299 299 300 301 302 303 303 304 305 306 306 306 306 309 303 310 315 315 313 306 299 292 294 301 301 299 301 300 301 299 298 295 297 296 298 298 302 298 287 287 294 294 290 292 287 288 290 288 290 289 292 291 290 291 285 286 288 294 293 289 288 291 285 285 285 287 282 280 278 278 285 291 295 293 286 290 291 293 294 294 290 293 293 292 291 292 292
299 299 300 301 302 303 304 304 305 306 306 307 306 312 304 309 312 311 309 308 300 296 298 301 302 301 302 303 303 303 300 300 302 303 300 297 302 300 297 300 299 299 298 299 294 292 295 293 295 290 288 290 293 288 290 286 283 289 294 292 283 291 287 289 283 288 285 282 284 290 293 294 296 295 294 295 296 296 295 294 293 291 291 293 292 291 293
299 299 300 301 302 303 303 304 305 306 306 307 307 312 302 305 307 312 310 301 303 303 304 303 303 302 303 302 304 304 304 305 306 306 305 302 298 302 301 300 297 303 303 302 297 295 295 293 288 293 290 291 289 287 289 288 285 289 285 294 291 295 295 294 291 288 292 293 293 294 294 294 294 296 296 295 295 296 296 294 292 293 293 294 292 293 293
298 299 300 301 302 303 303 304 305 305 306 306 306 312 305 306 307 308 304 303 299 296 299 303 299 293 297 297 301 304 304 304 305 308 311 310 297 295 302 304 303 303 302 304 306 298 295 294 293 294 288 291 293 287 284 284 286 290 289 288 291 295 296 293 288 291 288 283 294 292 293 294 294 294 296 297 296 295 295 294 293 293 294 294 294 294 294
298 299 300 301 302 302 303 304 305 305 305 306 307 313 310 309 311 311 303 293 296 295 289 292 295 299 301 303 304 303 303 305 308 309 309 309 306 300 299 305 308 303 300 304 308 300 296 291 291 291 287 293 294 287 292 288 287 293 286 288 289 288 296 291 290 289 286 286 290 292 294 295 296 295 294 294 295 296 296 296 295 295 295 295 295 295 294
299 299 300 300 301 302 303 304 304 305 305 306 307 312 306 307 312 313 309 306 302 298 290 289 295 302 303 302 300 302 305 305 305 306 307 307 308 308 307 307 309 310 308 308 303 297 294 292 292 291 289 290 298 289 289 292 291 294 290 288 293 293 295 287 290 287 289 291 292 293 293 294 294 295 296 296 296 295 296 296 296 296 295 295 296 296 295
299 299 300 300 301 302 303 304 304 304 305 306 308 314 307 308 312 310 307 306 298 291 293 290 295 298 301 299 302 304 304 304 306 306 306 306 307 308 307 305 304 303 302 301 301 296 295 293 293 291 293 291 296 293 295 291 292 289 289 293 296 292 288 291 289 286 285 286 288 292 286 286 290 293 295 296 297 297 296 296 296 296 295 295 294 295 296
299 299 300 301 301 302 303 303 304 304 304 305 310 312 312 308 309 310 310 311 304 293 291 292 293 297 302 299 302 303 304 304 304 304 304 305 306 307 306 304 304 301 300 297 293 293 292 290 289 292 292 295 292 290 295 294 294 290 290 291 294 291 292 292 287 287 286 292 293 294 294 293 294 295 296 297 297 296 295 294 295 296 296 296 295 294 294
298 299 300 301 301 302 303 303 304 304 304 305 313 310 307 309 310 311 313 312 310 303 296 296 300 299 291 296 303 302 304 305 304 303 303 303 303 304 303 302 301 300 300 297 295 295 293 293 295 293 293 300 294 289 291 286 286 285 289 294 295 295 297 295 293 293 293 295 294 296 294 292 294 296 297 297 298 297 295 296 296 296 296 296 296 296 295
298 299 300 301 301 302 303 303 304 304 305 309 312 305 298 301 309 311 312 311 311 309 294 292 289 291 302 301 300 301 302 303 304 305 304 303 303 303 302 302 301 301 300 295 294 291 293 293 293 299 299 303 293 291 287 288 285 288 293 294 295 296 297 297 297 294 292 296 296 296 296 296 296 297 297 298 299 298 297 297 297 296 296 297 296 296 296
299 299 300 301 301 302 303 303 304 304 305 312 308 296 293 290 301 312 309 312 314 308 296 295 292 296 295 300 301 299 301 302 302 303 303 303 302 302 302 302 301 299 294 294 294 293 294 291 292 294 298 298 294 290 288 287 285 288 292 294 295 295 295 295 297 297 297 296 297 297 296 296 296 296 296 296 297 297 297 297 297 298 298 297 297 297 297
299 299 300 301 301 302 302 303 304 304 310 306 302 301 302 305 309 307 310 312 313 307 294 290 289 290 290 294 300 302 301 302 302 303 302 304 300 302 301 301 297 301 296 294 295 294 292 293 292 294 294 297 294 290 290 288 285 286 293 294 295 295 296 296 296 296 297 297 296 294 294 294 296 294 293 296 296 297 296 295 296 297 297 296 297 297 297
299 299 300 301 301 302 303 303 304 303 306 306 304 304 304 303 304 307 309 314 309 302 302 293 288 289 289 293 300 302 302 302 301 301 298 303 299 301 296 300 299 298 302 296 292 290 295 293 293 292 295 299 291 290 290 287 288 293 294 294 295 295 295 296 296 297 297 297 297 292 291 292 294 296 296 297 296 296 296 296 296 296 296 296 295 296 296
299 299 300 301 301 302 303 303 304 303 305 305 307 308 311 304 308 305 313 315 307 305 299 292 288 288 289 298 295 298 301 296 296 299 292 301 302 300 295 298 299 292 296 293 294 294 294 292 291 290 294 291 291 289 285 289 293 293 294 294 295 295 295 295 295 294 295 296 297 297 296 296 297 297 297 296 296 296 297 296 296 295 295 295 295 295 295
299 299 300 301 302 302 302 303 307 308 305 305 305 309 311 303 303 305 314 309 294 292 292 292 293 288 288 290 289 295 302 298 292 297 293 296 304 297 297 292 294 291 291 301 293 293 290 291 295 290 288 293 289 285 287 290 292 293 294 294 295 295 295 294 294 295 296 297 297 296 297 297 296 295 295 295 296 296 295 295 296 295 294 294 295 295 295
299 300 301 301 301 303 305 307 307 307 302 302 304 307 302 306 309 319 313 316 307 295 291 290 292 289 291 286 287 291 301 296 298 299 297 295 296 299 298 294 290 293 300 294 290 294 291 296 292 287 291 288 286 288 290 293 293 293 293 293 294 295 295 294 294 295 296 297 296 296 296 296 295 294 295 295 295 295 296 295 295 295 294 294 294 295 295
299 300 301 301 304 303 302 300 305 306 304 307 310 306 303 307 311 309 311 307 310 307 297 291 291 292 294 290 292 292 298 289 296 293 294 293 290 293 294 291 289 291 290 290 290 289 293 300 291 287 287 286 288 293 294 294 294 293 293 294 295 295 295 296 296 296 295 296 296 296 295 295 294 295 294 294 295 295 295 294 295 295 294 294 295 295 295
300 300 301 303 304 296 295 297 304 311 306 304 302 304 302 304 295 296 297 295 300 302 296 298 291 294 297 293 288 297 297 291 298 290 291 293 290 290 293 290 289 290 286 288 291 298 294 291 289 287 288 293 294 295 295 295 295 296 295 295 295 295 295 295 296 295 293 292 292 292 292 293 293 294 294 294 295 294 295 295 296 296 296 295 295 295 296
299 301 303 305 300 293 294 302 311 302 312 306 307 298 294 297 294 290 291 293 294 292 296 295 292 296 295 293 294 301 299 292 291 292 288 294 290 286 291 286 289 290 287 287 289 299 287 288 288 288 286 290 291 293 296 296 296 296 296 296 296 296 296 296 296 295 295 294 294 295 294 293 292 293 295 294 295 295 296 296 296 296 296 296 296 296 296
302 301 298 299 296 298 303 305 302 303 305 298 299 295 289 294 290 286 294 289 289 292 295 290 298 297 297 293 292 293 301 298 289 288 290 291 298 288 289 289 290 288 283 284 286 296 287 283 287 286 285 289 291 294 295 295 294 295 295 296 296 296 296 296 295 295 295 295 295 296 296 296 295 295 295 294 294 294 295 295 296 296 297 296 296 296 296
302 303 301 296 300 303 301 303 305 305 298 293 292 292 290 287 292 292 290 288 289 289 296 296 297 296 297 297 296 292 299 303 300 299 293 289 296 295 288 285 290 286 284 284 289 291 289 286 286 285 286 291 292 294 295 295 294 295 296 296 296 296 296 296 296 297 297 296 296 296 296 296 296 296 296 295 295 295 294 295 295 296 296 296 296 296 297
302 300 302 306 305 303 302 301 300 294 292 293 288 285 288 289 291 290 291 286 287 291 294 296 291 294 294 297 296 297 295 301 297 293 291 287 291 290 287 288 289 285 282 287 291 290 288 283 285 285 289 293 294 295 295 294 294 295 295 296 296 296 297 296 295 296 297 296 296 296 296 295 296 295 296 296 295 296 295 295 296 296 296 297 298 297 298
302 302 302 305 299 296 297 292 293 292 285 285 284 284 287 285 287 286 287 292 293 294 294 302 299 300 300 301 297 300 296 301 294 292 290 287 292 291 287 286 285 283 286 291 288 286 284 283 284 287 292 293 294 294 295 295 296 296 296 297 297 297 297 296 295 295 295 296 296 296 295 296 296 296 295 296 296 296 296 296 296 296 297 297 297 297 297
307 306 302 296 292 292 293 283 292 288 285 286 284 280 283 283 285 288 287 289 293 291 296 295 294 295 290 297 294 291 292 296 295 293 290 291 289 286 285 283 284 289 293 287 286 283 284 286 289 290 293 294 295 295 295 296 296 296 296 296 296 297 296 297 297 296 295 296 297 296 296 296 295 297 297 297 296 295 295 296 296 297 297 297 297 297 297
297 295 293 290 288 290 288 280 290 286 281 284 286 285 285 283 286 288 288 293 295 294 296 298 296 296 291 296 295 294 293 290 294 290 285 289 286 286 284 284 288 288 285 283 285 285 285 285 291 293 293 293 294 295 295 296 296 295 295 296 296 296 296 296 295 296 295 296 295 294 295 296 295 296 296 296 297 297 296 296 297 296 296 296 296 297 297
292 290 289 283 278 285 287 283 284 283 287 288 287 290 289 291 292 292 296 297 296 296 295 296 296 297 292 295 291 289 293 292 288 288 289 289 285 283 288 291 289 284 284 284 282 282 283 288 290 292 293 294 295 296 295 296 296 297 295 294 295 296 296 296 295 295 295 295 296 296 296 296 296 296 296 296 296 296 297 298 297 297 297 297 296 296 297
292 292 291 288 283 286 289 284 284 287 291 291 293 294 294 295 296 297 297 299 297 297 297 298 297 296 292 291 292 291 292 292 288 289 291 285 284 286 290 286 282 283 281 281 282 284 286 289 292 294 295 295 295 295 296 296 296 296 296 295 295 295 296 295 296 295 296 296 296 296 296 296 296 296 296 296 296 297 297 297 298 298 298 297 297 297 297
288 291 291 283 281 286 284 287 292 294 295 295 295 297 297 298 297 295 298 300 298 299 298 297 293 293 292 296 295 290 290 290 287 288 290 287 288 285 283 283 282 284 285 284 284 288 289 292 294 294 296 296 296 295 295 296 296 296 296 295 295 296 296 295 295 296 296 296 295 295 296 296 296 296 295 296 296 296 297 297 298 298 298 298 298 297 297
293 290 287 286 288 288 288 292 293 291 294 296 297 297 297 296 294 296 299 300 299 298 298 296 292 292 289 291 290 289 286 289 284 284 288 286 283 279 280 278 281 280 285 288 288 290 291 294 295 296 296 296 296 296 296 296 296 296 296 296 296 296 296 296 296 296 296 296 296 296 296 296 296 296 295 296 295 296 298 298 298 298 298 298 297 297 297
290 289 291 289 288 289 292 294 292 290 293 294 294 294 296 296 295 297 300 297 300 298 296 295 295 292 290 290 286 287 286 288 287 287 285 283 283 284 283 280 282 283 285 289 291 292 294 295 296 295 296 296 296 296 296 296 295 296 296 296 296 296 296 296 296 296 296 296 296 296 296 295 295 295 295 295 296 297 297 298 298 297 298 298 298 298 297
293 291 290 296 289 288 292 287 288 289 290 291 292 294 296 295 296 295 300 299 298 296 293 289 290 289 288 287 286 282 285 290 287 285 284 283 286 285 283 282 284 287 290 293 294 295 295 296 295 295 295 296 296 297 296 296 296 297 296 297 296 296 296 297 296 296 296 296 297 293 295 295 296 296 297 297 296 296 296 296 297 297 298 298 298 298 298
289 287 288 291 296 295 294 294 295 294 294 294 295 297 297 295 298 298 301 299 296 291 290 292 290 288 285 284 286 289 290 288 285 286 284 286 288 285 285 286 288 291 293 293 294 295 295 296 296 294 296 295 295 297 297 297 297 297 297 296 296 296 296 296 296 296 295 295 296 296 296 297 297 297 297 296 296 296 294 295 296 297 298 298 298 299 299
Wind_Speed
14 13 12 12 12 12 13 14 14 14 14 10 8 9 6 8 2 2 11 8 10 8 6 6 5 7 7 3 2 4 5 6 4 5 5 6 5 4 4 5 5 5 7 5 6 6 4 4 6 6 5 10 2 3 10 7 3 3 9 9 6 9 1 4 8 7 10 12 7 3 8 11 10 11 10 10 11 10 10 8 4 4 2 2 1 1 4
13 11 11 12 12 12 13 13 14 13 11 8 8 6 6 3 2 3 7 8 7 3 5 5 5 7 4 5 3 2 4 5 5 1 8 5 6 5 3 4 4 7 5 5 7 3 2 3 8 2 6 4 11 7 11 8 6 5 2 3 6 3 2 7 4 2 6 10 9 8 6 7 5 3 7 12 13 12 8 9 7 2 5 5 5 2 2
12 11 11 12 12 13 13 14 14 13 11 7 5 4 3 1 1 3 5 7 7 5 4 5 3 7 6 6 6 7 6 4 6 5 4 5 1 3 5 5 0 6 2 4 5 8 4 4 6 5 5 4 6 13 3 6 2 6 1 4 3 1 3 3 4 6 7 4 6 5 3 5 5 5 11 12 17 19 9 2 5 3 3 7 3 3 5
11 12 12 12 13 13 14 13 12 11 9 6 4 4 5 2 2 4 7 7 7 7 10 9 8 6 3 1 3 6 2 5 3 5 8 4 7 2 4 6 9 3 5 6 6 8 5 5 3 6 4 2 0 2 5 3 5 4 6 3 3 1 3 2 3 2 2 2 6 5 5 5 5 8 11 11 13 15 10 2 2 2 8 3 7 8 9
12 12 12 12 13 14 14 14 12 10 8 7 5 5 5 1 1 5 5 7 9 7 8 9 6 2 5 3 5 5 4 4 6 5 4 3 4 1 5 4 3 3 3 7 6 6 12 7 5 8 2 4 4 8 6 2 5 3 1 3 3 2 1 1 3 4 5 5 7 12 5 6 5 8 10 12 13 12 12 5 3 4 3 1 5 11 6
11 12 12 12 13 14 14 13 13 10 9 7 3 4 4 2 3 4 4 3 4 5 6 6 3 5 7 2 2 3 3 4 2 3 5 5 2 5 4 6 7 2 4 1 3 6 7 4 4 7 3 7 4 4 10 3 0 4 4 3 2 1 2 2 3 3 6 2 8 12 11 2 5 9 11 13 12 14 9 8 7 2 3 2 2 5 6
11 12 12 12 13 13 14 13 13 10 9 4 6 3 3 3 5 4 4 3 3 1 3 2 2 4 4 3 2 4 3 4 3 3 5 0 1 4 0 5 10 5 5 3 4 3 3 3 3 2 7 4 2 1 5 8 5 2 2 3 3 1 2 2 1 3 5 5 5 3 12 3 11 13 13 13 12 9 7 9 9 8 9 9 12 12 11
11 12 11 12 13 13 13 14 12 10 10 7 7 8 4 3 1 2 5 4 5 3 3 3 5 4 3 1 4 2 5 3 6 8 5 2 3 3 6 4 3 4 7 3 4 0 4 5 2 3 2 2 0 1 4 4 5 7 2 1 3 4 1 4 4 5 5 3 3 3 1 6 12 14 15 15 13 12 11 12 13 7 7 6 9 10 8
12 11 11 12 13 13 14 14 12 11 9 5 7 5 4 3 5 8 4 2 5 2 4 4 3 4 3 3 5 3 4 3 1 2 1 5 3 4 4 2 6 1 8 5 3 2 5 2 3 3 4 3 2 3 2 5 1 2 1 2 1 3 1 3 3 2 3 2 2 8 8 11 16 16 16 14 13 11 10 8 7 9 8 3 4 6 3
11 11 11 12 13 13 14 14 13 11 10 6 6 5 2 7 10 6 4 1 2 4 3 3 6 3 3 1 7 2 1 5 4 2 5 5 10 2 2 3 7 4 1 3 5 3 4 5 5 6 5 5 7 4 3 4 4 2 2 0 2 1 3 2 3 3 3 4 3 8 4 6 6 10 11 10 10 9 10 11 12 12 10 7 3 5 6
11 11 11 12 12 13 14 14 13 10 8 6 5 5 3 3 7 4 4 3 2 6 4 4 3 8 6 3 6 2 3 2 2 4 3 8 2 3 3 4 4 3 2 1 3 5 6 7 7 7 8 8 6 4 5 6 5 3 5 1 0 1 3 3 0 3 2 4 5 7 2 2 4 3 6 7 9 9 11 10 10 11 10 7 8 9 9
11 12 12 12 13 13 13 13 13 10 8 6 7 8 6 5 6 6 3 1 2 2 2 5 5 3 1 3 0 6 2 3 3 7 1 2 2 5 2 4 2 1 7 2 6 5 8 9 9 8 10 10 8 7 6 7 2 1 3 3 1 1 1 0 2 2 1 4 5 3 2 3 3 4 8 6 5 11 14 12 12 12 12 9 10 10 10
11 12 12 12 13 13 13 13 12 11 8 7 6 7 7 6 5 4 5 6 0 2 1 3 6 5 3 6 3 2 3 5 2 1 3 5 1 4 5 0 1 3 5 5 5 7 7 6 6 8 9 10 8 7 3 7 6 3 2 2 3 1 1 0 0 1 1 2 3 3 4 1 2 3 10 10 5 6 6 12 13 12 11 8 8 7 7
11 11 12 13 14 14 14 13 13 12 11 8 7 7 8 8 5 4 4 5 1 3 5 1 3 5 3 4 1 2 3 5 1 2 3 2 6 3 4 6 3 3 4 5 7 5 5 4 4 5 5 5 5 5 8 6 4 4 7 4 1 3 2 1 1 4 1 3 6 7 7 5 8 2 8 9 5 6 5 4 7 10 9 7 5 6 6
11 11 12 13 14 15 15 15 14 14 12 10 7 8 8 7 5 4 5 6 5 3 1 4 5 6 3 2 0 3 5 4 3 4 4 3 5 4 3 6 4 3 5 4 4 3 1 3 2 2 1 3 4 2 6 5 7 3 4 3 2 2 2 3 2 1 1 3 6 4 4 3 5 7 6 6 4 3 4 1 5 9 9 7 5 6 5
11 12 12 13 14 15 16 16 15 14 14 14 7 7 8 4 3 5 7 6 5 3 4 5 6 2 1 3 1 4 1 2 3 2 4 3 5 6 5 1 4 2 6 5 3 1 0 1 1 3 3 3 3 6 1 2 2 3 3 2 4 6 6 3 0 1 2 1 1 1 2 5 3 9 8 5 4 4 1 2 5 7 9 6 5 5 4
11 12 13 14 15 15 16 16 17 16 13 12 7 7 3 4 4 4 6 5 4 5 5 6 3 2 4 4 4 3 2 2 4 2 2 2 4 3 8 4 3 4 6 2 5 3 2 3 3 1 3 3 1 2 2 1 2 5 3 6 2 2 2 1 1 1 1 1 3 4 4 4 8 10 7 6 5 0 1 3 3 8 8 7 6 5 4
11 13 13 14 15 16 17 16 17 16 15 11 7 5 5 2 3 6 4 7 2 3 5 4 4 2 2 6 4 4 2 3 4 3 2 2 5 4 6 4 4 4 2 1 2 1 3 4 0 1 1 3 2 2 1 3 4 1 1 2 1 2 2 1 1 4 6 8 6 5 4 2 10 11 6 6 4 1 1 3 3 5 7 7 7 9 9
12 12 13 15 16 17 17 17 17 16 15 14 10 7 5 1 2 4 4 6 2 3 6 5 2 5 5 1 2 2 3 5 5 1 0 2 3 4 1 4 4 3 5 3 1 1 2 2 1 1 1 1 3 1 1 1 1 4 3 2 5 4 2 2 4 4 4 3 6 5 4 3 12 11 6 8 3 2 3 2 4 6 8 9 9 8 8
12 13 14 15 16 17 18 18 17 16 15 13 8 5 4 3 1 4 4 4 5 4 3 5 4 7 6 9 8 6 2 3 5 6 6 1 2 3 1 2 3 4 3 2 2 1 2 2 3 2 1 2 2 8 8 8 9 8 6 10 4 3 2 3 3 1 2 1 5 3 4 5 14 12 2 13 3 3 2 4 8 8 8 9 9 8 8
11 13 14 16 17 18 18 19 18 16 15 12 9 5 1 2 4 4 6 4 5 3 4 5 7 10 7 7 9 9 8 7 6 5 6 4 5 5 1 2 5 2 2 2 1 1 1 3 5 2 3 4 2 1 5 6 10 11 8 7 7 8 1 4 3 4 4 5 5 4 3 4 10 10 6 6 6 3 3 3 6 7 7 7 8 9 9
12 13 14 16 17 18 19 19 19 18 17 15 13 5 2 3 3 4 6 4 4 4 6 7 8 7 8 7 5 6 8 7 7 5 5 4 5 3 3 4 7 2 0 1 1 3 2 3 3 3 4 6 6 6 7 7 8 8 11 5 5 10 6 3 7 5 4 4 5 5 5 7 8 9 10 9 8 9 9 9 8 7 7 8 9 10 9
12 13 14 16 17 18 18 19 19 18 17 16 12 5 4 3 3 4 2 7 5 5 4 5 5 7 7 8 6 6 7 6 5 5 6 5 3 8 5 5 6 3 3 4 3 1 6 7 7 5 8 8 8 10 11 9 5 3 5 6 9 8 10 7 11 13 14 12 11 10 10 10 11 10 9 9 9 9 9 10 9 9 9 8 9 9 10
12 13 15 16 17 18 18 19 19 18 18 16 10 6 2 5 5 3 5 4 2 4 4 4 3 4 5 7 7 5 5 6 5 3 1 3 5 3 6 7 4 2 2 4 6 2 4 4 5 4 6 7 7 7 8 8 8 9 8 7 6 9 9 8 8 10 6 7 7 12 12 12 13 12 12 11 10 10 9 10 10 10 10 11 11 11 11
13 13 15 16 17 18 18 18 19 19 19 17 16 11 2 2 4 7 2 3 3 2 3 3 5 4 5 5 4 6 5 4 5 4 3 1 6 6 6 4 2 1 3 1 2 5 4 4 4 3 6 7 3 9 9 8 8 6 9 8 7 10 10 13 13 13 10 10 12 12 12 12 11 10 10 11 11 11 10 10 10 10 10 10 10 9 9
12 13 15 16 17 17 18 18 18 18 16 19 13 6 3 5 5 8 5 4 4 3 4 3 5 4 4 5 7 7 6 6 5 5 6 7 6 5 4 2 3 5 3 4 4 4 4 4 5 5 6 5 5 7 8 11 12 11 11 10 10 9 6 7 9 11 13 14 13 13 14 14 13 12 11 10 10 10 11 11 11 11 11 10 10 9 9
12 13 15 16 17 17 18 17 18 17 18 16 10 9 3 3 4 6 6 7 2 4 2 4 4 6 6 9 7 6 6 5 4 5 6 6 5 3 2 2 5 7 9 9 8 5 5 6 6 9 8 6 5 9 10 10 11 8 9 10 9 10 11 11 9 9 8 8 9 8 7 7 9 12 12 12 12 11 12 11 11 11 11 10 11 11 10
13 14 15 16 17 17 17 18 17 16 17 19 11 6 3 1 1 2 5 6 6 1 5 4 5 6 3 10 7 7 7 6 5 5 6 6 7 6 5 6 5 6 7 6 6 5 6 8 10 5 5 7 9 10 9 10 9 10 10 10 10 8 6 7 7 7 8 9 10 12 12 10 9 9 10 11 10 11 11 10 11 11 11 10 9 9 8
13 14 16 16 17 17 17 17 17 16 18 15 7 5 2 1 2 4 6 6 5 4 6 4 5 3 4 6 5 8 6 6 5 5 5 7 8 8 8 9 9 9 10 8 6 6 7 7 4 6 5 3 5 8 7 8 8 10 10 10 10 12 15 16 15 13 12 11 10 9 9 10 9 10 9 8 8 9 11 10 9 9 9 8 8 9 8
13 15 16 16 17 17 18 17 17 16 14 7 6 4 3 4 1 5 6 5 5 6 2 3 4 3 1 3 7 6 8 8 8 7 8 7 7 7 8 8 8 8 7 5 5 7 6 5 4 6 6 0 4 5 6 8 9 10 9 10 12 13 13 12 10 10 11 11 11 10 11 10 9 10 9 8 7 7 8 8 8 8 8 7 7 6 6
13 15 16 16 17 17 17 17 16 18 15 4 5 3 3 4 2 5 9 6 5 5 1 3 5 3 4 3 4 8 8 8 8 8 8 7 7 7 7 6 7 7 5 5 5 6 4 6 4 7 7 7 4 6 8 7 10 11 12 12 11 12 11 11 11 12 12 11 11 10 9 9 8 9 8 7 7 7 8 7 7 4 2 8 8 6 6
14 15 16 17 17 17 17 17 16 15 8 4 4 4 4 3 4 8 9 8 6 5 4 5 4 3 3 2 3 4 7 4 5 5 6 5 8 8 10 8 7 7 5 6 5 5 6 5 5 7 8 8 6 6 9 8 9 9 10 11 11 11 10 10 10 11 11 11 11 9 8 7 5 6 7 7 7 7 8 8 7 6 3 5 6 8 9
14 15 16 17 18 18 17 16 15 8 5 6 8 8 2 4 9 8 7 7 5 3 4 2 3 2 2 6 3 4 3 4 5 3 6 3 7 4 6 6 7 7 6 5 4 5 5 5 5 7 8 6 5 5 9 9 10 11 11 9 10 10 10 9 8 7 7 6 6 7 8 7 8 8 6 6 7 5 4 7 8 5 5 5 6 6 5
15 15 17 17 18 18 17 17 15 12 8 4 1 3 3 6 6 7 8 4 4 2 1 3 3 3 4 3 4 4 6 3 5 2 4 2 5 5 4 5 5 4 4 6 4 4 5 5 6 7 6 6 4 6 7 10 12 12 11 10 9 9 8 9 8 9 9 9 8 8 8 8 6 6 5 5 4 6 7 5 5 5 5 4 3 4 3
15 16 16 18 18 17 18 13 6 4 4 3 5 3 4 9 8 7 5 5 2 1 1 2 1 6 4 3 2 3 4 2 5 3 4 1 5 5 4 3 1 3 3 3 4 4 5 5 7 5 7 6 4 5 5 10 11 10 8 9 9 9 9 9 9 9 9 8 8 8 8 8 8 6 5 4 3 4 2 4 5 4 3 2 3 3 2
15 17 17 18 19 14 8 5 4 5 4 3 4 3 4 8 8 4 4 3 3 2 2 3 3 4 2 4 4 2 5 6 6 4 4 1 5 3 4 3 5 3 2 1 4 4 5 3 2 6 3 4 5 5 8 9 9 9 10 9 8 7 7 8 8 9 8 7 8 5 6 7 6 6 5 4 1 3 4 2 3 1 3 2 1 2 1
16 17 19 18 8 3 4 2 3 5 3 3 3 7 7 6 2 4 5 4 3 2 3 2 3 4 4 5 3 2 3 4 3 4 4 2 3 1 3 1 5 1 3 4 3 3 2 2 4 6 5 6 6 9 9 8 9 8 8 8 7 7 4 6 8 10 8 6 5 4 5 5 5 5 5 4 4 4 1 2 4 4 3 3 2 0 2
17 17 7 4 5 2 2 2 2 2 3 4 4 1 2 3 3 1 1 2 2 3 1 4 2 6 5 6 5 4 3 5 4 3 3 3 3 2 1 3 3 2 5 3 4 4 4 3 4 6 6 8 9 9 9 9 8 7 7 7 6 6 6 6 5 5 5 6 5 4 3 4 4 6 4 5 5 4 4 3 3 2 2 2 3 3 1
13 6 5 6 4 2 1 4 2 3 3 4 2 1 3 1 2 1 1 0 1 2 1 4 3 2 5 6 6 1 3 2 3 4 4 2 0 3 1 3 1 1 5 2 3 5 4 4 4 4 6 6 8 9 8 8 8 7 7 6 6 5 4 6 8 7 6 6 4 4 5 6 5 4 5 4 1 3 4 3 3 3 2 2 2 3 2
4 4 2 3 2 4 4 4 1 2 4 3 2 2 1 3 4 1 1 2 3 0 1 2 4 2 2 8 6 5 1 4 2 6 3 4 3 2 2 1 2 1 4 3 4 4 3 5 4 4 6 5 8 7 8 7 8 7 7 6 6 6 6 6 5 4 5 6 6 6 3 3 3 3 2 3 3 4 3 3 3 3 5 3 4 2 1
4 6 4 3 4 4 6 5 4 4 3 2 1 1 2 1 2 3 1 3 2 3 2 3 3 4 0 6 4 5 3 3 5 5 4 3 0 2 3 2 1 2 3 3 2 2 3 4 4 5 6 7 8 8 9 8 7 7 6 6 6 7 6 5 4 4 5 6 5 4 5 3 4 1 4 3 3 3 2 2 3 3 3 2 2 3 3
4 5 5 9 3 6 5 4 3 1 2 0 1 1 2 0 1 0 2 3 3 2 3 5 5 6 5 5 6 5 3 4 1 1 2 3 0 1 3 2 1 2 3 3 3 1 2 3 4 6 8 10 10 8 8 9 7 7 7 6 4 3 8 6 7 4 4 3 4 4 6 3 4 0 5 5 4 3 5 5 2 3 3 2 2 3 4
16 11 6 3 4 3 2 2 1 0 1 1 1 1 1 1 2 3 3 0 2 4 4 6 6 6 6 4 7 4 3 3 1 2 2 3 1 1 3 2 1 2 3 3 3 2 3 3 3 8 9 11 9 9 9 7 7 6 8 6 5 4 6 4 4 6 4 5 4 5 3 2 2 3 3 3 2 2 2 1 3 3 2 4 3 3 3
6 5 3 1 2 1 1 2 1 1 1 2 2 3 3 3 4 3 3 3 4 3 6 6 6 7 4 2 2 4 2 3 1 1 3 2 1 2 1 3 2 4 2 2 2 3 3 2 5 12 11 10 7 8 9 9 9 8 7 6 6 3 3 2 4 6 7 7 6 5 4 4 2 1 0 2 2 2 1 1 1 1 1 1 3 3 3
3 1 2 2 0 2 0 2 1 1 2 2 3 3 3 4 3 4 3 4 6 7 7 4 7 6 5 4 5 3 2 3 0 0 3 3 2 2 2 2 3 2 2 3 3 2 2 2 8 12 12 11 8 9 9 8 9 7 6 5 5 4 4 4 3 2 1 1 5 2 2 3 1 1 1 2 3 4 3 3 4 3 0 2 4 3 2
3 3 3 3 3 3 1 2 2 2 2 3 4 6 7 6 6 4 7 6 5 8 6 6 6 6 4 1 2 3 2 2 3 2 3 1 3 2 2 2 1 3 2 3 3 4 3 5 9 10 11 10 9 9 9 8 8 10 7 5 5 4 4 2 3 1 2 1 0 1 2 1 1 1 2 2 1 1 2 3 1 2 6 6 4 5 5
2 1 2 1 2 2 2 2 4 3 3 6 7 7 5 6 3 7 4 4 8 6 6 6 5 6 5 3 1 3 2 1 2 2 1 3 2 2 1 1 2 2 3 3 3 3 4 4 8 10 10 10 9 9 8 7 5 6 7 7 4 5 5 2 2 1 2 1 0 1 1 1 2 2 3 2 2 2 2 1 2 4 4 6 6 5 4
2 2 2 2 2 2 4 3 6 5 4 5 5 5 8 8 7 5 2 5 7 5 5 6 6 5 3 2 3 4 3 2 3 1 1 3 1 1 2 1 2 2 2 2 3 4 3 8 8 9 9 9 9 8 7 7 6 5 6 7 4 4 4 4 3 2 0 1 1 1 2 1 2 1 3 3 3 2 3 4 2 2 4 5 5 5 5
2 1 2 2 2 3 3 4 4 5 4 1 3 5 2 5 6 5 4 4 4 7 6 6 4 3 3 3 2 4 4 3 3 2 2 2 2 2 2 3 3 3 3 3 4 2 6 10 10 9 10 10 8 7 7 6 7 5 5 6 5 4 4 3 2 2 1 1 3 2 2 2 3 3 3 3 4 4 2 4 3 3 4 6 5 5 6
2 1 2 2 2 3 6 4 6 3 5 4 2 3 5 6 6 5 4 6 4 4 3 6 1 2 2 1 2 2 4 3 2 2 3 3 2 2 3 4 3 3 4 4 2 7 10 9 10 9 10 9 8 7 8 6 5 3 4 3 3 3 4 3 3 3 4 2 2 2 5 5 3 4 4 5 5 7 5 4 4 4 4 4 6 6 6
2 2 3 4 3 2 3 4 5 4 3 5 7 6 5 7 6 6 3 4 4 5 8 4 3 3 3 1 2 2 1 2 3 4 3 3 2 3 3 4 4 3 3 9 9 8 9 10 9 9 9 9 7 6 7 7 6 4 4 4 4 4 3 3 3 3 3 4 3 2 5 6 4 3 4 3 4 6 6 6 4 3 5 5 5 6 5
2 2 3 3 7 4 6 6 2 2 5 6 5 6 5 6 5 5 5 5 4 2 1 3 2 1 3 3 2 1 2 1 2 3 4 3 3 3 3 4 5 5 5 7 8 9 7 7 7 7 8 8 7 7 6 6 6 5 5 4 4 4 4 4 3 3 1 2 3 2 2 3 4 2 3 4 5 5 5 5 3 3 3 4 4 4 6
Wind_Direction
324 320 322 321 318 321 326 331 333 334 335 329 344 327 251 238 245 311 172 161 179 203 223 202 213 229 252 296 259 103 213 252 197 256 192 205 222 284 185 245 255 264 288 287 280 311 291 263 274 320 100 106 120 21 279 308 20 54 342 297 15 353 300 217 249 253 252 271 261 290 287 282 255 234 241 228 232 236 249 252 310 249 112 196 54 224 114
320 322 323 322 322 327 333 334 334 332 335 327 318 287 266 303 77 208 169 185 200 175 216 194 218 232 219 296 242 314 341 240 224 237 163 236 155 220 269 262 250 291 237 249 275 229 282 289 286 9 32 43 326 335 16 310 10 336 321 302 354 286 214 253 252 266 268 242 228 221 242 278 258 340 335 340 341 318 327 301 122 205 199 160 125 248 123
319 325 325 326 330 332 333 332 330 326 326 317 302 273 309 163 318 309 186 183 208 218 220 272 272 197 212 211 224 181 195 252 352 341 334 19 301 252 234 295 201 225 298 294 268 281 276 285 277 108 106 64 13 337 63 18 31 86 158 320 312 267 13 325 236 231 225 215 238 229 229 260 343 328 17 6 4 356 320 329 15 286 174 200 222 128 105
326 327 327 329 332 334 332 329 326 323 326 302 253 250 274 182 167 210 193 193 190 227 249 255 276 159 201 192 236 222 224 130 202 255 276 129 281 43 346 275 272 236 267 247 245 254 232 251 288 264 121 108 217 242 359 53 108 62 56 62 51 49 17 327 329 318 300 308 289 318 253 299 295 357 9 16 8 6 347 57 64 31 329 308 31 111 128
327 329 326 331 332 331 332 329 327 328 318 313 247 256 272 346 316 177 175 178 213 222 224 222 231 196 162 190 194 219 168 257 162 171 286 135 265 232 212 283 248 210 275 289 292 313 304 240 233 254 160 72 58 340 43 262 88 237 216 109 78 12 307 340 13 349 300 326 319 283 289 298 25 22 17 22 31 22 13 357 78 126 341 10 5 105 100
326 330 326 330 331 329 331 328 323 332 326 352 243 255 201 221 247 249 222 203 187 198 217 220 176 80 210 84 30 278 165 207 134 152 219 184 240 281 150 216 252 129 255 197 291 294 278 304 306 330 75 118 94 80 309 296 303 266 84 103 145 234 251 90 59 312 303 173 258 315 290 269 50 57 42 32 43 35 20 31 8 59 100 134 98 92 107
328 327 327 329 328 328 331 331 332 333 335 338 256 278 243 255 309 259 186 197 117 278 119 188 121 187 251 111 181 226 170 214 142 255 263 201 177 225 309 302 304 292 224 152 266 220 277 290 302 5 14 346 45 96 355 336 76 96 23 76 7 280 246 142 115 282 269 246 245 134 299 33 59 50 49 55 60 61 46 39 23 55 88 91 91 83 69
329 325 326 328 326 330 334 334 334 334 320 282 248 241 254 162 265 194 198 260 148 145 141 157 182 137 95 198 158 258 143 196 194 170 176 321 300 341 263 266 244 271 315 314 232 203 272 8 316 66 257 323 328 123 165 226 357 32 36 30 138 263 130 139 236 252 256 282 264 178 335 94 64 46 40 45 59 59 42 40 21 25 64 102 117 102 84
329 328 328 328 329 332 337 337 336 327 327 268 233 262 232 286 198 270 281 182 86 146 157 150 176 125 192 223 130 223 159 180 247 313 61 132 261 247 301 289 269 0 15 310 273 340 320 202 258 265 252 285 48 283 160 231 169 158 155 167 93 244 220 210 260 256 230 102 24 2 133 90 66 40 30 32 36 51 40 44 18 20 357 320 160 75 90
330 328 327 329 332 335 337 336 332 327 314 284 282 239 330 298 277 252 292 247 186 226 144 188 187 178 113 27 142 225 105 171 158 355 312 211 180 219 276 15 344 291 219 296 282 30 290 296 317 317 318 248 251 264 256 225 253 165 335 25 252 261 284 250 232 248 269 95 65 68 171 120 55 28 11 14 44 59 66 47 34 15 354 38 43 71 71
331 329 330 332 333 334 335 335 334 333 324 305 314 319 336 335 319 294 245 217 145 256 151 168 128 59 134 192 110 314 247 339 337 175 176 290 66 134 72 309 251 275 205 150 7 276 287 293 274 270 275 279 269 241 259 249 241 222 178 190 1 307 282 266 0 263 83 49 65 81 84 171 60 348 16 355 35 55 71 52 35 23 21 59 53 56 61
332 330 331 332 332 332 333 334 332 332 323 300 294 286 286 291 296 288 270 277 151 249 173 44 65 115 228 116 51 149 356 173 294 32 338 304 2 8 13 210 163 265 38 335 276 294 270 252 258 255 263 262 258 271 270 267 221 206 234 220 251 252 292 274 30 258 205 119 130 129 190 86 170 38 30 18 53 83 84 70 44 29 25 44 59 62 65
331 329 330 332 332 331 332 333 332 329 331 313 292 280 302 310 302 296 298 284 301 196 191 148 169 119 132 101 145 343 3 348 11 317 343 286 246 203 218 180 40 273 108 293 312 279 274 270 249 245 229 230 235 252 295 10 350 7 275 199 229 183 217 156 190 226 109 192 182 209 85 163 155 38 34 13 29 29 107 69 43 32 26 31 66 67 81
327 325 333 333 331 331 332 332 333 331 332 325 290 281 297 304 309 305 307 316 272 95 61 117 116 120 103 133 339 246 170 190 286 44 254 236 285 251 274 265 182 67 282 272 262 270 281 236 231 215 214 216 57 21 4 323 27 337 327 329 321 292 207 262 91 331 97 35 53 85 138 123 41 32 14 18 359 354 6 59 47 28 25 21 62 83 84
329 331 333 331 329 331 332 334 334 333 330 328 289 280 273 273 287 301 307 288 290 106 68 22 67 105 111 19 267 238 207 173 201 177 234 110 267 277 289 274 322 18 10 312 278 270 304 3 293 207 132 240 202 180 26 339 309 339 308 305 269 126 293 352 306 169 317 111 114 135 180 100 48 16 350 358 29 327 321 180 100 28 24 26 41 76 81
332 334 332 331 331 332 335 335 336 335 334 332 288 268 264 310 322 280 270 294 282 160 65 65 19 53 174 162 221 262 251 151 246 155 161 194 209 230 186 283 39 10 273 248 253 105 22 267 223 212 217 215 181 97 245 196 311 286 187 300 292 71 42 58 350 71 90 73 102 56 89 86 19 345 344 343 358 352 85 217 79 18 10 24 36 64 68
332 334 335 333 334 333 335 337 337 339 335 340 317 296 290 75 320 324 310 307 36 55 70 79 53 339 294 135 196 219 315 340 268 191 193 178 268 152 132 167 149 228 213 260 45 23 341 275 232 218 49 339 245 114 172 356 85 309 303 165 110 158 166 168 200 132 98 167 119 85 40 54 347 339 342 4 352 15 252 211 66 353 13 36 52 67 79
334 336 335 334 335 336 336 337 338 338 339 335 317 298 309 46 8 323 308 286 95 75 65 16 339 253 16 32 14 45 317 244 217 121 257 151 190 162 133 174 201 177 306 247 93 124 162 257 287 333 99 36 94 214 180 107 131 52 35 344 93 82 113 20 62 77 68 79 102 118 105 56 354 337 359 10 12 238 284 37 356 356 44 44 52 50 46
336 337 336 337 339 339 338 337 338 338 342 341 327 280 232 343 13 322 311 296 84 88 35 56 349 25 353 68 30 231 29 353 352 251 31 124 48 6 247 100 145 194 171 97 180 77 31 349 81 173 153 62 16 109 159 24 23 321 76 98 112 51 45 99 97 75 81 97 81 92 101 37 347 333 29 354 274 29 70 69 17 33 53 47 54 61 64
342 338 339 340 340 342 338 338 338 339 340 344 335 305 336 25 3 298 321 330 90 94 107 71 12 78 41 25 29 18 73 175 35 350 5 343 109 239 330 132 144 60 304 93 154 119 227 113 83 327 83 128 220 122 98 70 46 36 55 34 40 0 336 72 56 42 83 55 101 106 67 21 360 328 23 10 50 77 103 87 50 47 61 64 63 72 82
343 340 342 343 343 342 340 337 339 338 340 336 337 317 284 101 306 326 279 262 119 114 99 65 57 54 47 48 26 33 39 31 14 3 347 349 64 67 325 115 257 18 41 29 343 69 0 90 122 139 149 156 110 269 90 89 66 44 33 62 50 344 98 93 66 350 86 64 63 57 31 11 18 29 68 44 65 104 106 83 74 58 64 77 81 79 89
345 344 343 345 344 343 340 338 339 340 338 335 329 283 239 64 356 2 356 3 84 74 64 60 68 74 62 68 81 42 42 29 36 2 340 342 314 351 119 191 70 75 219 109 170 136 120 109 79 80 65 88 96 76 90 89 70 58 42 24 69 354 47 352 88 17 54 91 99 109 99 63 55 66 75 78 78 79 79 85 85 86 79 84 85 86 87
346 344 345 346 345 343 341 339 340 338 337 337 347 292 118 153 85 330 59 77 90 116 154 132 135 110 112 92 69 62 66 54 48 41 9 344 315 87 14 66 69 55 84 90 70 61 72 82 79 74 71 55 87 95 81 80 92 59 67 28 119 172 111 99 83 87 95 95 107 104 86 77 76 72 76 80 80 79 86 88 91 84 85 85 92 95 95
345 346 346 347 344 343 342 341 341 338 337 331 333 301 142 129 130 166 112 126 130 118 76 59 90 47 42 53 62 58 68 74 49 72 97 329 351 76 65 39 55 83 49 148 166 110 92 68 79 67 86 91 88 83 99 102 96 121 126 134 142 139 140 107 106 146 121 80 101 92 93 93 85 80 79 79 79 84 88 90 93 99 96 93 90 95 94
343 346 345 346 344 343 343 343 341 339 337 338 339 323 51 87 13 337 156 133 162 117 99 76 45 36 77 52 55 70 51 72 70 42 86 69 17 42 67 90 204 118 124 122 229 145 120 122 120 75 63 10 64 86 66 82 93 94 103 111 107 80 83 86 85 89 87 106 99 93 92 91 92 86 81 79 83 88 89 94 98 102 104 101 99 91 81
344 343 345 344 345 344 344 343 341 338 337 332 332 299 234 61 16 349 294 106 83 122 126 97 90 27 36 68 58 54 41 52 57 63 67 69 54 49 108 188 175 213 207 153 156 74 69 80 83 73 68 73 58 101 95 69 75 62 68 66 71 99 120 85 101 96 100 104 101 99 96 90 90 93 94 101 105 104 104 103 102 100 99 96 92 92 97
342 342 343 345 345 345 344 342 341 340 337 333 330 320 26 112 15 8 7 349 295 112 101 104 113 103 82 65 43 58 60 73 53 72 60 51 68 99 106 74 69 66 70 69 61 63 62 65 66 72 58 53 33 64 64 64 64 62 63 71 102 104 101 115 115 109 106 111 126 135 106 97 92 95 103 108 112 111 111 108 103 101 95 93 92 91 94
339 340 342 343 344 344 343 340 340 337 337 331 315 310 15 17 81 35 358 8 354 44 119 126 107 93 70 57 47 55 40 48 60 65 74 66 61 50 48 55 67 92 100 110 110 96 93 90 84 96 95 83 74 75 75 83 77 68 60 52 30 48 86 126 102 101 107 106 94 81 91 97 95 95 90 93 99 106 104 100 105 114 118 118 116 110 107
338 337 340 341 342 342 340 339 336 334 334 325 301 274 146 345 102 26 33 358 337 313 101 100 127 133 66 50 32 80 73 94 79 69 63 79 74 66 64 61 67 72 67 63 69 70 69 63 63 68 59 4 87 99 97 77 70 73 69 76 68 64 64 77 91 97 91 92 96 101 103 103 105 100 105 104 98 94 101 110 114 109 110 110 109 122 120
335 336 337 339 338 339 337 335 333 330 327 311 288 214 148 117 345 39 20 349 341 322 137 122 96 80 65 58 79 81 85 66 65 63 76 66 64 63 61 68 65 64 69 74 83 87 83 90 80 79 83 241 90 94 92 92 89 88 88 80 76 72 71 80 85 89 98 96 95 98 101 102 102 104 103 106 102 95 91 95 102 117 121 109 104 106 116
333 334 335 335 334 335 332 331 330 328 320 295 276 191 156 151 106 40 3 343 335 311 101 101 92 110 90 6 44 84 71 71 62 62 59 56 62 82 91 94 93 95 97 91 87 94 109 91 92 76 66 58 89 98 93 91 86 81 76 77 77 82 88 88 88 93 103 107 105 99 100 102 108 109 97 95 98 110 116 108 110 76 37 121 122 119 103
332 330 331 331 330 330 327 325 327 328 310 352 1 9 2 7 350 321 316 308 320 287 118 121 140 126 87 78 35 70 97 98 116 110 79 71 72 54 54 54 70 66 69 85 72 75 66 71 69 72 77 49 54 90 90 95 102 101 99 90 95 98 100 105 107 108 103 107 110 107 100 103 104 96 105 108 111 107 102 114 116 129 176 79 74 99 124
328 326 327 328 326 324 321 319 319 328 325 320 301 292 270 261 286 280 324 329 298 220 143 123 96 135 133 102 123 53 13 144 113 126 92 80 92 99 99 106 103 97 81 84 79 82 81 84 81 81 70 82 87 95 102 101 103 108 106 109 105 106 103 104 105 107 112 119 123 118 120 116 103 97 112 113 99 107 127 105 85 70 76 89 86 80 96
321 323 323 323 321 319 316 312 303 294 274 258 224 117 93 16 341 350 338 311 288 46 280 108 149 122 104 208 165 135 247 246 103 100 103 108 122 118 97 87 67 78 61 85 110 103 87 86 90 89 86 72 79 95 93 102 109 113 118 120 115 107 100 89 85 80 72 76 82 88 93 94 94 100 90 74 73 57 63 69 82 80 61 74 80 84 73
319 319 321 319 315 312 306 297 297 247 249 188 89 58 3 344 329 297 306 346 312 170 154 142 117 116 148 195 161 108 306 251 120 115 118 149 251 120 145 121 151 99 94 127 106 104 117 100 109 98 87 107 100 90 103 113 110 119 128 123 120 117 121 118 100 96 109 108 110 116 127 128 125 113 106 98 108 107 80 60 42 43 93 78 73 122 123
316 317 317 315 307 296 284 249 242 260 198 98 78 60 356 307 311 317 322 287 295 317 157 138 173 149 162 152 137 130 273 88 97 119 62 118 115 89 102 101 101 76 190 173 100 118 94 145 148 98 139 113 101 116 110 110 105 74 60 54 59 76 90 107 111 98 80 69 65 67 80 86 90 89 102 104 76 34 43 58 121 290 346 45 195 83 70
314 317 312 296 279 218 241 217 114 8 19 26 331 324 297 298 230 282 244 263 192 191 284 191 203 158 175 109 106 138 243 131 194 113 184 161 99 96 123 131 94 120 111 105 111 106 138 241 96 103 93 101 100 98 103 102 108 117 105 98 107 109 71 65 105 123 127 128 131 122 115 110 107 119 113 88 73 71 5 326 31 334 303 322 35 180 111
314 308 292 241 209 223 163 110 55 38 341 308 304 168 176 241 166 168 205 229 88 314 242 284 81 94 104 146 137 124 260 134 212 133 97 102 143 116 108 105 109 217 125 115 79 51 84 84 101 102 92 88 98 100 97 90 89 96 113 114 106 99 124 143 146 130 136 134 125 125 109 87 77 66 39 47 38 53 55 358 335 330 310 277 290 314 332
296 268 244 256 237 109 66 98 54 351 297 161 260 242 150 249 170 174 184 157 154 227 308 276 136 175 133 116 114 107 327 149 154 133 159 119 180 124 227 135 158 231 114 145 132 264 113 100 114 124 116 116 109 101 99 97 91 84 86 81 74 77 77 51 35 36 64 80 79 62 45 44 39 72 71 76 111 102 55 22 0 345 335 312 257 255 283
232 240 241 233 62 84 107 118 134 184 207 190 218 219 167 238 161 150 167 178 210 165 257 122 77 49 126 139 154 142 26 333 173 181 145 126 318 161 177 165 134 180 141 187 128 242 151 138 137 139 138 147 118 128 124 130 119 110 102 102 100 80 67 71 92 96 60 38 31 57 72 144 88 355 48 60 39 31 44 86 82 6 342 347 52 329 268
231 260 246 74 99 120 113 145 178 227 208 190 125 271 124 251 250 119 220 221 196 117 298 94 160 126 119 105 157 147 121 288 340 78 131 128 73 286 158 137 130 196 160 134 139 224 156 138 163 161 142 138 140 140 132 121 121 126 109 105 113 116 99 90 57 33 124 126 123 114 91 40 87 73 77 56 0 73 98 18 19 358 313 322 297 270 263
335 309 323 297 26 104 146 166 208 153 346 13 174 172 192 165 4 180 205 197 159 136 176 169 168 162 137 176 141 118 104 311 272 86 108 123 295 272 116 114 195 192 140 94 163 187 169 155 197 125 132 140 139 152 135 122 118 99 90 70 31 78 119 123 115 84 23 75 89 100 94 2 55 273 26 35 39 17 47 353 358 89 359 0 312 268 270
288 254 252 247 147 162 186 173 187 219 135 14 196 142 187 203 195 200 175 348 95 198 106 24 61 71 89 96 86 11 65 349 317 151 162 116 184 234 138 131 211 161 110 140 209 162 154 195 137 125 142 136 150 157 132 136 132 128 118 135 120 85 83 75 54 77 25 49 66 28 61 164 75 55 73 252 101 317 75 110 342 36 9 337 351 341 317
265 264 231 205 169 143 200 136 153 39 338 176 157 166 198 210 191 212 210 164 174 167 145 184 157 194 144 246 139 131 145 163 299 58 93 131 190 101 139 166 133 74 104 198 186 174 162 207 132 140 136 136 158 157 137 144 131 131 138 133 139 131 99 131 136 152 156 154 157 152 196 80 320 349 180 52 46 86 21 297 185 27 306 349 324 329 321
210 195 202 148 154 148 159 48 271 201 204 197 209 197 176 208 184 196 187 121 222 133 167 175 167 177 148 137 102 118 206 141 88 240 124 179 125 151 200 138 112 180 193 170 180 158 135 172 114 130 133 147 156 146 136 139 136 142 133 139 141 131 138 118 113 100 66 32 78 13 352 89 343 61 0 46 328 4 344 345 18 337 241 224 266 281 305
199 165 143 111 0 292 202 172 171 215 215 183 215 215 193 194 203 160 111 173 149 133 177 148 177 130 128 123 243 139 204 136 166 138 160 168 144 126 49 76 185 166 180 183 181 156 165 132 119 130 137 151 155 144 147 146 145 141 149 153 123 133 127 95 90 49 72 51 152 140 37 15 275 347 356 354 322 264 320 327 13 321 319 314 318 304 327
194 187 188 159 164 195 243 197 199 214 197 199 225 216 224 183 170 100 168 167 124 150 158 172 137 131 152 175 173 126 162 135 127 118 207 124 117 96 281 167 188 174 184 174 176 148 183 164 135 134 144 156 149 141 149 153 186 128 140 128 156 148 139 177 112 144 113 126 272 226 271 66 0 326 319 315 302 324 286 210 303 332 316 297 302 308 273
187 222 227 178 199 189 210 218 226 219 229 202 213 83 63 75 89 107 158 136 130 156 147 124 114 126 155 161 236 152 111 117 127 133 12 107 130 153 134 149 167 206 182 181 178 217 157 129 134 138 148 144 146 165 158 151 141 152 135 132 171 150 152 154 192 175 130 185 269 246 248 238 275 278 268 285 301 292 283 297 18 317 281 295 291 273 261
332 210 196 213 219 193 228 223 214 189 201 180 180 82 117 161 116 148 141 102 152 143 157 152 133 202 148 168 180 116 129 143 155 138 136 145 135 150 160 167 180 174 205 206 197 190 117 125 128 141 140 148 160 178 159 157 148 160 148 156 163 165 152 174 186 150 123 244 243 248 283 294 293 295 298 279 271 286 351 12 344 274 266 270 273 278 289
240 235 295 238 221 212 217 209 231 175 143 186 199 191 189 140 148 131 117 145 136 121 87 73 102 263 120 296 97 146 135 169 136 146 193 158 158 176 188 163 175 208 185 204 200 115 118 119 124 137 147 154 186 180 138 152 126 147 150 177 154 155 175 189 179 159 205 241 289 21 4 359 300 274 305 331 4 1 336 295 283 297 283 265 276 286 291
274 275 235 251 237 198 194 191 218 171 154 175 192 180 159 145 146 142 226 122 138 194 185 156 179 174 142 166 112 147 150 113 134 178 176 178 175 173 170 186 192 211 146 95 95 106 112 120 136 139 159 156 184 147 137 138 156 193 162 174 164 177 174 177 192 206 212 204 204 154 228 234 255 6 345 319 320 312 306 298 295 304 302 305 291 284 276
212 212 229 218 265 218 177 236 227 163 161 199 183 134 145 133 153 163 174 152 155 186 150 91 255 95 103 168 183 108 93 208 175 152 176 167 194 181 179 202 192 191 142 108 107 104 124 129 132 142 155 156 189 135 146 148 162 176 181 172 169 172 173 164 199 197 235 274 261 223 320 320 315 357 15 339 290 273 266 274 288 300 310 300 302 293 290